Showing default

BEIDOU 3M11, 43602

Orbit data source: Space-Track

BEIDOU 3M11, 43602 is a payload satellite owned by CNSA (CN) in MEO that was launched on Fri, 24 Aug 2018 UTC via a CHANG ZHENG 3B/YZ-1 launch vehicle from the Xichang Space Center, China (XSC). Payload-class satellites include a variety of spacecraft equipped with specific instruments for various scientific and technological missions. These include communications satellites like Starlink; space stations such as the ISS; scientific satellites like the Hubble; Earth observation satellites from companies like Planet Labs, Umbra, and HawkEye 360; GPS; miniature CubeSats for education and research; and military/defense satellites.

Loading next visibility...
Identifier
43602, 2018-067A
Orbit
MEO
Country
Flag of CNCN / PRC
Related business
Manufacturer
SECM
Mission
Operational Defense Navigation
Bus & Motor
BD-3M2, Unknown motor
Mass
1,014 kg wet, ~850 kg dry
Launch date (UTC)
2018-08-24 (8 years ago)
Launch vehicle
CHANG ZHENG 3B/YZ-1
Launch site
Xichang Space Center, China (XSC)
Object type
Payload
Rocket body
Debris
Shape & HBR
Box + 2 Pan, 5.0 m
Radar Cross Section
8.984 m², Large (>1 m²)

Expand to show TLE details & history
Last TLE update: 1 day ago

TLE from 1 day ago
0 BEIDOU 3M11
1 43602U 18067A   26257.04418277  .00000009  00000-0  00000-0 0  9991
2 43602  54.1783 178.0285 0008838  36.5274 323.5501  1.86227497 54778
Epoch: 2026-09-14T01:03Z
TLE epoch observation values (Epoch: 2026-09-14T01:03:37.391Z)
Latitude
0.00003°
Longitude
169.09113°
Altitude
21,508.816 km
Speed
3.782 km/s
True Right ascension
11h 52m 06s
True Declination
0° 00' 00"
Sunlit
Object was in daylight at epoch
Visualization orbit readout
Latitude
Unknown
Longitude
Unknown
Altitude
Unknown
Speed
Unknown
Apparent Right ascension
Unknown
Apparent Declination
Unknown
Sunlit
N/A
Visualization observer readout
Local Sidereal Time
01:46:06
Azimuth
Unknown
Elevation
Unknown
Doppler factor
Unknown
Orbital elements
Apogee altitude
21,553.104 km
Perigee altitude
21,503.777 km
Semi-major axis
27,906.577 km
Eccentricity
0.00088
Inclination
54.1783°
RAAN
178.0285°
Arg. of periapsis
36.5274°
True anomaly
323.48988°
Mean anomaly
323.5501°
Eccentric anomaly
323.51999°
Mean motion
0.46557 °/min
Orbital period
773.25 mins
BSTAR
0
Loading maneuver chart data...
Computing Atmospheric mass density...
Loading historical data...
Loading historical data...
Loading historical data...
Loading historical data...
Loading historical data...
Loading historical data...
Loading historical data...
Other satellites on launch #67 in the year 2018 (2018-08-24 UTC)

Documentation

Showing up to 5 results
|